{"data":{"norad_id":62281,"intl_designator":"2024-237Q","name":"STARLINK-33544","alt_names":[],"object_type":"PAYLOAD","status":"ACTIVE","operator":null,"country":"US","launch_date":"2024-12-08","launch_site_code":"AFETR","launch_vehicle":null,"mission":null,"orbit_class":"UNKNOWN","rcs_meters":null,"size_class":null,"mass_kg":null,"dimensions":null,"purposes":["comms"],"wikipedia_slug":null,"has_3d_model":false,"image_url":null,"decayed_at":null,"tle_current":{"epoch":"2026-05-25T00:35:24.978624Z","epoch_age_seconds":83667,"freshness":"FRESH","line1":"1 62281U 24237Q   26145.02459466  .00016310  00000+0  60096-3 0  9995","line2":"2 62281  42.9982 145.4987 0001267 258.3234 101.7476 15.27576768 82860","mean_motion":15.27576768,"eccentricity":0.0001267,"inclination_deg":42.9982,"raan_deg":145.4987,"arg_perigee_deg":258.3234,"mean_anomaly_deg":101.7476,"bstar":0.00060096,"rev_number":8286,"period_min":94.266948160343,"perigee_km":482.18946032288,"apogee_km":483.92808733197,"semimajor_km":6861.1957738274,"source":"CELESTRAK","updated_at":"2026-05-25T13:38:19.644834Z"}}}